EHI
3 6 9 9 8 7 7 7 7 7 5 3 2 1 0 0 0 0 0 0 0 0 1 1 1 1 2 3 2 1 0 0 0 0 0 0 0 0 0 0 0 0 0
4 7 10 9 8 8 7 7 7 5 4 3 1 0 1 1 1 0 0 0 0 0 0 0 0 0 1 2 2 1 0 0 0 0 0 0 0 0 0 0 0 0 0
5 6 9 10 10 9 8 7 6 5 4 3 1 1 2 2 2 1 0 0 0 0 0 0 0 1 1 1 1 1 1 1 0 0 0 0 0 0 0 0 0 0 0
5 6 8 11 12 10 8 7 7 6 4 3 2 1 2 3 3 2 1 1 1 0 0 1 1 1 1 1 0 1 2 2 1 0 0 0 0 0 0 0 0 0 0
5 6 8 11 13 11 9 9 9 7 4 3 3 2 3 3 3 3 3 2 2 1 0 1 1 1 1 0 0 1 2 2 1 0 0 0 0 0 0 0 0 0 0
4 5 8 11 13 13 11 10 9 7 5 4 3 3 4 4 3 3 3 4 3 1 0 1 1 0 0 0 0 1 1 1 0 0 0 0 0 0 0 0 1 1 1
1 3 7 10 12 13 12 10 9 7 6 4 3 4 5 4 3 3 4 4 3 2 1 0 0 0 0 0 0 0 0 0 0 0 0 0 0 0 1 1 2 2 1
0 2 5 8 9 10 11 10 9 7 6 4 3 4 5 5 4 3 3 4 3 3 2 1 1 0 0 0 0 0 0 0 0 0 0 0 0 0 0 0 1 2 1
1 3 5 6 7 8 10 10 9 7 5 3 3 4 5 5 4 3 3 3 3 3 3 2 1 0 0 0 0 0 0 0 0 0 0 0 0 0 0 0 0 0 0
3 3 5 6 6 7 9 10 9 7 6 5 4 4 5 4 3 3 3 4 3 2 2 2 1 0 0 0 0 0 0 1 1 1 1 1 1 1 1 1 0 0 0
3 4 5 7 8 7 7 8 8 7 8 8 6 5 4 4 2 2 4 5 4 2 1 1 0 0 0 0 0 0 0 1 1 2 1 1 1 1 2 1 0 0 0
4 4 6 8 10 10 9 9 9 9 10 10 8 7 6 4 2 3 5 6 5 2 1 0 0 0 0 0 0 0 0 0 1 1 1 1 1 0 1 1 0 0 0
5 6 8 9 11 11 12 13 13 13 12 11 10 9 9 7 5 5 6 5 4 2 0 0 0 0 0 0 0 0 0 1 1 1 1 2 1 0 0 1 1 1 0
7 8 10 12 12 13 14 15 17 16 15 13 11 11 11 10 7 6 5 4 3 1 1 1 1 0 0 0 0 0 1 1 1 1 1 2 1 0 0 1 1 1 1
10 11 13 15 17 17 17 18 18 17 15 13 12 12 12 10 7 5 4 3 3 2 3 4 2 1 0 0 0 0 0 0 0 0 1 1 1 0 0 1 1 2 2
13 14 16 19 20 20 19 19 17 15 14 13 12 12 11 9 6 5 4 4 4 4 6 6 5 2 1 1 1 0 0 0 0 0 0 1 0 0 1 2 2 3 3
17 19 21 22 23 22 20 19 15 13 12 11 11 11 10 9 7 5 4 4 5 8 9 9 7 5 3 2 1 1 1 0 0 0 1 1 1 0 1 2 3 3 3
21 24 25 24 25 26 24 21 16 12 12 10 9 11 11 10 9 7 5 5 7 10 11 9 7 5 3 2 1 2 2 1 0 0 1 2 1 0 0 1 3 4 4
22 25 26 26 27 28 26 23 18 15 14 11 10 12 14 12 11 10 8 7 8 11 11 9 6 5 3 2 2 2 3 2 1 0 1 1 0 0 0 1 2 4 4
20 22 25 28 31 31 29 25 21 19 17 14 12 14 15 13 11 11 10 8 9 10 10 8 6 5 4 3 3 3 3 3 2 1 0 0 0 0 0 0 1 2 3
25 26 27 30 32 33 33 29 25 23 20 16 12 13 15 13 11 11 9 8 9 10 9 8 6 6 4 3 3 3 3 3 3 2 2 1 0 0 0 0 0 0 1
32 34 34 33 34 35 35 31 26 24 22 17 13 13 15 14 12 9 8 9 11 10 9 7 6 6 4 3 3 3 3 3 3 3 3 2 1 1 1 1 1 0 0
35 37 38 39 40 40 36 30 27 26 24 21 18 17 16 16 13 9 7 9 11 11 8 7 7 6 4 3 3 3 3 3 3 4 3 2 2 2 2 1 1 0 0
33 35 38 44 49 48 42 35 31 30 28 26 25 22 19 17 14 10 7 8 11 11 9 8 8 6 4 3 4 5 5 5 5 5 5 3 3 3 2 1 0 0 1
30 32 39 46 51 51 47 41 37 33 31 30 28 25 21 18 15 12 9 9 11 11 10 10 9 7 5 5 6 7 7 7 6 6 6 6 5 4 3 1 0 0 1
27 31 39 46 50 51 49 44 39 35 32 31 29 27 22 19 17 13 10 10 11 12 11 11 10 8 6 6 8 8 7 7 6 6 6 6 6 5 3 2 1 0 1
Wind_Speed
8 11 13 8 8 7 7 6 6 6 6 6 6 6 6 6 5 5 6 7 7 6 6 7 7 8 9 9 9 9 10 10 10 10 10 10 9 9 9 8 8 8 10
10 12 13 9 8 7 7 7 6 6 6 6 6 6 6 5 5 5 5 6 6 6 6 6 6 7 9 9 9 9 10 10 10 10 10 10 10 9 8 6 3 6 10
11 11 12 9 8 8 7 7 6 6 6 6 6 6 5 5 5 5 5 6 6 6 6 6 6 8 10 10 9 9 9 9 9 9 8 7 9 8 8 7 7 7 8
11 10 10 10 8 8 7 7 6 6 6 5 5 5 5 5 5 5 6 6 6 6 7 7 8 9 9 9 8 8 8 8 8 7 5 4 6 9 7 7 7 7 7
10 10 11 10 8 8 7 6 6 5 5 5 4 4 4 4 5 5 5 6 6 6 7 7 7 8 8 7 7 7 7 8 7 5 5 5 5 8 7 6 6 7 7
10 10 12 9 8 7 7 6 6 5 5 5 4 4 4 5 4 4 5 5 5 5 6 6 6 7 7 7 7 7 6 6 7 5 5 4 5 7 6 5 6 7 7
10 9 12 10 8 7 6 6 5 5 4 4 4 5 5 4 4 4 4 4 4 5 5 5 5 6 6 7 6 6 5 4 3 4 4 4 5 7 5 4 5 7 7
9 9 11 11 8 7 6 5 5 4 4 4 4 4 4 3 3 3 3 3 3 4 4 5 5 5 6 6 6 5 4 3 4 4 4 4 6 7 6 4 5 6 7
9 9 9 10 9 8 7 5 4 4 3 3 3 3 3 2 2 2 2 2 3 3 4 5 5 5 6 6 6 5 4 3 2 3 4 4 7 7 6 5 5 6 7
8 7 7 7 8 8 8 7 5 4 3 2 3 2 1 2 2 1 2 5 4 4 4 5 5 5 5 5 5 4 4 5 2 3 3 6 7 7 7 6 6 6 6
8 7 6 6 6 5 5 7 6 6 4 4 4 3 2 1 2 3 7 7 5 4 4 5 5 5 5 6 6 4 4 1 2 2 3 8 7 6 6 6 6 6 6
10 8 6 6 6 5 4 4 3 4 4 2 1 1 1 2 2 3 7 5 4 4 4 5 5 6 4 3 6 6 1 1 1 2 5 7 5 5 5 5 6 6 6
9 8 7 6 5 4 3 3 2 1 2 2 1 0 1 0 1 1 1 3 3 3 2 4 5 2 1 1 1 1 1 0 1 2 5 6 4 3 4 4 6 7 7
9 9 7 7 6 4 2 2 2 2 2 1 1 1 1 0 1 1 1 1 0 1 1 1 1 2 2 1 1 1 1 0 1 2 4 5 3 3 3 4 6 6 7
9 9 8 7 6 5 3 2 2 1 1 2 1 1 0 0 0 1 1 1 1 1 1 1 1 1 2 2 2 1 2 1 1 2 4 5 3 3 3 4 5 5 6
9 9 8 8 7 6 5 3 2 2 1 1 1 1 0 0 1 1 1 1 1 1 1 1 1 1 1 1 1 2 1 2 2 2 2 5 5 3 3 4 5 5 4
9 9 8 8 7 6 5 4 3 2 1 1 1 1 1 0 0 0 0 0 1 1 0 0 1 1 1 1 2 2 1 1 2 2 1 2 3 5 4 3 3 3 3
8 8 8 6 7 7 5 4 2 2 2 1 1 1 1 1 1 1 0 0 0 0 0 0 1 1 1 1 1 1 1 2 2 1 1 2 1 2 5 5 3 3 2
8 8 7 7 7 7 6 4 3 2 2 1 1 1 1 1 1 1 0 0 1 1 0 1 1 1 1 1 1 1 1 1 1 2 1 1 1 1 1 5 6 4 3
9 8 8 7 6 6 5 4 3 3 3 2 1 1 1 1 2 2 1 1 1 1 0 0 1 1 0 1 1 1 1 1 1 1 2 2 1 1 1 1 3 5 4
9 9 8 8 7 6 5 5 4 4 3 2 2 2 2 2 2 2 1 2 1 1 1 1 1 2 1 1 1 2 2 3 2 1 1 1 2 1 1 2 1 1 3
9 9 9 9 8 7 5 4 3 3 3 2 2 2 2 2 2 2 2 2 2 2 2 1 1 1 1 2 2 2 2 3 3 2 2 2 1 1 1 1 1 1 1
9 9 8 8 8 7 6 4 4 4 3 3 3 2 2 2 2 2 2 2 2 3 2 2 2 2 2 2 1 2 2 0 1 3 2 1 1 1 1 1 1 1 1
9 9 9 8 8 8 7 6 6 4 4 3 2 2 3 2 2 2 2 3 3 2 2 3 2 2 2 2 1 2 2 2 2 1 3 2 2 1 0 0 1 1 1
8 8 8 8 8 8 8 7 6 5 4 3 3 2 2 2 2 2 2 2 3 2 2 2 2 3 2 2 1 1 2 2 3 2 1 2 2 2 1 1 1 1 1
7 8 8 8 8 8 8 7 7 6 4 3 3 2 2 2 2 2 3 2 3 2 3 3 3 4 2 2 2 2 2 2 2 2 2 2 2 1 2 1 1 1 1
Wind_Direction
140 129 131 141 136 129 125 121 115 110 105 99 98 97 93 87 82 78 74 77 82 86 96 106 113 120 126 127 128 129 128 130 133 135 135 133 132 134 136 145 157 138 121
134 130 135 142 137 130 125 121 116 111 109 106 103 100 95 92 87 81 80 80 79 82 94 107 117 128 130 126 124 128 130 131 134 137 139 139 135 137 141 143 129 109 127
132 132 142 139 136 131 125 120 117 113 110 106 103 100 97 92 83 79 81 81 81 83 93 101 107 119 130 129 127 127 128 131 134 143 162 149 133 138 146 141 133 125 132
133 137 135 134 135 131 127 124 120 117 111 105 103 100 95 89 83 78 79 80 81 81 87 99 98 110 121 128 129 129 132 137 143 168 158 121 122 129 143 140 141 141 143
134 137 129 139 136 133 131 129 123 118 112 105 99 96 93 89 85 82 80 80 83 84 85 95 99 104 112 123 127 127 132 141 159 172 118 114 106 118 136 141 142 146 143
143 145 130 142 138 135 134 130 123 117 110 102 94 89 86 84 83 81 79 79 82 88 93 95 102 107 109 115 121 120 132 155 178 132 117 123 121 118 131 146 150 148 143
147 144 132 140 139 137 136 130 125 118 109 98 91 86 84 80 77 79 82 81 84 88 93 99 106 109 110 113 116 122 129 164 167 132 133 128 112 121 134 148 159 154 148
148 143 132 142 143 140 135 131 124 117 109 99 96 85 77 74 72 72 81 86 91 93 99 108 109 110 116 117 118 120 137 189 158 132 129 126 116 139 153 162 166 160 151
150 147 149 152 151 151 143 136 131 122 111 99 91 82 76 69 65 60 76 114 108 103 107 114 113 114 120 119 120 122 132 181 190 136 130 115 124 150 163 166 167 164 159
154 156 157 156 150 159 153 148 151 142 126 118 109 95 103 150 136 82 108 108 105 106 107 109 114 117 120 124 124 131 162 203 173 133 114 108 125 148 161 163 163 162 165
163 167 166 159 157 163 147 144 168 168 165 188 166 159 217 144 94 100 74 91 102 105 108 112 117 121 136 141 142 163 210 186 117 102 96 100 122 141 157 162 160 162 160
172 175 170 167 166 166 156 158 179 176 155 196 143 162 154 68 59 63 98 108 110 119 135 132 143 165 193 150 152 190 184 126 130 118 101 105 118 136 150 160 170 171 165
174 173 174 170 176 178 171 165 172 169 155 181 159 171 109 119 92 84 105 135 145 168 157 151 183 163 126 84 88 109 93 100 91 92 102 112 123 145 155 159 165 169 173
178 177 178 175 176 188 184 166 180 180 169 165 142 212 145 104 62 69 51 49 72 99 96 94 125 116 118 126 127 121 144 150 108 91 105 117 132 158 166 166 160 166 174
182 181 178 177 171 176 185 206 176 188 181 147 147 135 16 166 64 44 44 21 347 52 120 133 105 121 138 142 139 129 138 134 127 122 118 122 131 148 170 172 168 166 170
186 183 176 181 175 179 186 191 186 192 183 183 155 126 246 308 51 348 35 14 340 4 33 47 104 152 117 104 114 111 119 118 116 130 126 130 131 136 156 168 172 176 176
184 181 180 180 175 180 191 194 185 187 186 187 151 153 200 246 108 9 27 273 358 29 75 81 130 148 137 135 126 120 116 116 121 126 145 142 146 151 160 164 160 171 181
182 178 182 182 174 178 186 194 194 186 178 180 170 158 175 195 197 249 246 76 308 231 193 160 170 141 124 143 128 126 129 147 149 170 187 168 153 155 154 156 155 139 151
181 177 179 184 182 182 180 183 186 175 190 192 170 171 163 184 201 236 225 51 235 212 197 254 109 144 134 124 157 161 165 166 174 172 174 186 161 217 170 142 150 144 151
179 178 179 177 180 184 180 179 185 184 188 190 184 186 185 184 196 232 188 181 235 175 154 100 133 143 154 179 193 144 171 175 195 163 202 164 179 202 198 174 176 164 163
178 178 179 180 177 182 186 192 187 187 190 187 191 195 199 206 204 222 200 172 207 155 163 179 199 170 169 163 191 170 158 167 160 160 191 176 157 168 187 215 235 223 167
180 180 180 182 181 186 186 193 190 190 189 187 202 188 200 200 218 204 218 201 180 175 176 189 206 211 175 189 242 216 186 166 173 156 172 178 159 178 201 193 175 225 255
182 183 183 183 180 186 184 184 178 183 193 186 192 186 191 201 206 227 213 211 198 210 185 205 208 208 205 194 259 278 268 205 159 150 170 152 178 205 214 165 191 205 225
185 182 184 181 180 180 185 191 190 195 197 196 202 179 180 194 217 227 224 202 215 220 201 217 195 223 228 214 196 273 302 330 275 179 177 166 182 203 201 228 166 174 212
184 181 178 177 180 180 186 190 198 204 205 195 195 177 195 180 214 231 223 208 208 216 212 231 220 232 224 238 237 232 233 232 255 257 217 192 191 191 180 196 213 179 176
177 174 172 174 178 179 184 189 198 202 208 206 204 197 204 196 204 217 220 212 208 213 212 217 225 215 230 225 248 246 241 246 246 254 254 233 204 180 174 179 204 198 201